Ft Lauderdale, FL

5:34 PM EDT on June 27, 2017 (GMT -0400)
Fort Lauderdale-Hollywood International

Weather History for KFLL - November, 2012

Change the Weather History Date:

Friday, November 2, 2012

  Actual Average Record
Temperature  
Mean Temperature 72 °F 78 °F  
Max Temperature 81 °F 83 °F 90 °F (1919)
Min Temperature 63 °F 72 °F 51 °F (1957)
Degree Days  
Heating Degree Days 0 0  
Month to date heating degree days 0 0  
Since 1 July heating degree days 0 0  
Cooling Degree Days 7 13  
Month to date cooling degree days 12 26  
Year to date cooling degree days 4169 4220  
Growing Degree Days 24 (Base 50)    
Moisture  
Dew Point 58 °F    
Average Humidity 62    
Maximum Humidity 93    
Minimum Humidity 30    
Precipitation  
Precipitation 0.00 in 0.17 in 1.85 in (1976)
Month to date precipitation 0.00 0.33  
Year to date precipitation 59.29 56.81  
Snow  
Snow 0.00 in - - ()
Month to date snowfall 0.0  
Since 1 July snowfall 0.0  
Since 1 September snowfall 0.0  
Snow Depth 0.00 in    
Sea Level Pressure  
Sea Level Pressure 30.05 in    
Wind  
Wind Speed 5 mph (NW)    
Max Wind Speed 12 mph    
Max Gust Speed 16 mph    
Visibility 10 miles    
Events      
T = Trace of Precipitation, MM = Missing Value Source: NWS Daily Summary

Daily Weather History Graph

Daily Weather History Graph

Search for Another Location

Airport or City:

Trip Planner

Search our weather history database for the weather conditions in past years. The results will help you decide how hot, cold, wet, or windy it might be!

Date:

Astronomy

Nov. 02, 2012 Rise Set
Actual Time 7:30 AM EDT 6:37 PM EDT
Civil Twilight 7:06 AM EDT 7:01 PM EDT
Nautical Twilight 6:39 AM EDT 7:28 PM EDT
Astronomical Twilight 6:11 AM EDT 7:55 PM EDT
Moon 9:34 PM EDT (11/2) 10:38 AM EDT (11/2)
Length of Visible Light 11h 55m
Length of Day
11h 07m
Waning Gibbous, 87% of the Moon is Illuminated
Nov 2
Waning Gibbous
Nov 6
Last Quarter
Nov 13
New
Nov 20
First Quarter
Nov 28
Full

Hourly Weather History & Observations

Time (EDT) Temp. Dew Point Humidity Pressure Visibility Wind Dir Wind Speed Gust Speed Precip Events Conditions
12:53 AM 68.0 °F 63.0 °F 84% 30.04 in 10.0 mi SW 5.8 mph - N/A   Partly Cloudy
1:53 AM 68.0 °F 64.0 °F 87% 30.03 in 10.0 mi SW 8.1 mph - N/A   Partly Cloudy
2:53 AM 68.0 °F 64.0 °F 87% 30.03 in 10.0 mi WSW 4.6 mph - N/A   Partly Cloudy
3:53 AM 68.0 °F 64.9 °F 90% 30.01 in 10.0 mi WSW 3.5 mph - N/A   Partly Cloudy
4:53 AM 68.0 °F 64.9 °F 90% 30.01 in 10.0 mi West 3.5 mph - N/A   Clear
5:53 AM 66.9 °F 64.9 °F 93% 30.02 in 10.0 mi West 4.6 mph - N/A   Clear
6:53 AM 66.9 °F 64.9 °F 93% 30.04 in 10.0 mi Calm Calm - N/A   Partly Cloudy
7:53 AM 66.9 °F 64.9 °F 93% 30.05 in 10.0 mi Calm Calm - N/A   Partly Cloudy
8:53 AM 70.0 °F 66.9 °F 90% 30.06 in 10.0 mi WNW 6.9 mph - N/A   Partly Cloudy
9:26 AM 71.6 °F 66.2 °F 83% 30.08 in 10.0 mi NNW 6.9 mph - N/A   Mostly Cloudy
9:30 AM 71.6 °F 66.2 °F 83% 30.08 in 10.0 mi NW 6.9 mph - N/A   Mostly Cloudy
9:53 AM 72.0 °F 66.0 °F 81% 30.08 in 10.0 mi NW 6.9 mph - N/A   Scattered Clouds
10:05 AM 71.6 °F 64.4 °F 78% 30.08 in 10.0 mi NW 6.9 mph - N/A   Mostly Cloudy
10:53 AM 71.1 °F 64.9 °F 81% 30.10 in 10.0 mi NNW 9.2 mph - N/A   Mostly Cloudy
11:17 AM 71.6 °F 64.4 °F 78% 30.10 in 10.0 mi NNW 8.1 mph - N/A   Partly Cloudy
11:53 AM 75.9 °F 63.0 °F 64% 30.08 in 10.0 mi Variable 4.6 mph - N/A   Partly Cloudy
12:53 PM 78.1 °F 57.9 °F 50% 30.06 in 10.0 mi WNW 6.9 mph - N/A   Partly Cloudy
1:53 PM 80.1 °F 52.0 °F 38% 30.03 in 10.0 mi NNW 5.8 mph - N/A   Partly Cloudy
2:53 PM 81.0 °F 48.9 °F 33% 30.01 in 10.0 mi NNW 6.9 mph 16.1 mph N/A   Partly Cloudy
3:53 PM 80.1 °F 46.9 °F 31% 30.01 in 10.0 mi West 5.8 mph 16.1 mph N/A   Partly Cloudy
4:53 PM 79.0 °F 51.1 °F 38% 30.01 in 9.0 mi Variable 3.5 mph - N/A   Partly Cloudy
5:53 PM 78.1 °F 48.0 °F 35% 30.02 in 10.0 mi NW 6.9 mph - N/A   Partly Cloudy
6:53 PM 75.0 °F 45.0 °F 34% 30.03 in 10.0 mi NW 6.9 mph - N/A   Partly Cloudy
7:53 PM 71.1 °F 46.9 °F 42% 30.05 in 10.0 mi NNW 5.8 mph - N/A   Partly Cloudy
8:53 PM 69.1 °F 48.0 °F 47% 30.06 in 10.0 mi North 5.8 mph - N/A   Clear
9:53 PM 70.0 °F 48.9 °F 47% 30.07 in 10.0 mi NNW 3.5 mph - N/A   Clear
10:53 PM 66.9 °F 50.0 °F 54% 30.07 in 10.0 mi North 5.8 mph - N/A   Clear
11:53 PM 66.9 °F 52.0 °F 59% 30.08 in 10.0 mi Calm Calm - N/A   Clear